Location: Ariel
(45.9570°N, 122.5700°W)
Time: 05:03:33
(UTC-07:00)

Vanguard 3 - Pass Details

Date: 31 August 2019
Orbit: 508 x 3263 km, 33.4° (Epoch: 14 September)

Event Time Altitude Azimuth Distance (km) Brightness Sun altitude
Rises 15:19:16 0° 235° (SW) 6,757 12.6 43.5°
Reaches altitude 10° 15:24:46 10° 228° (SW) 5,382 12.5 42.8°
Maximum altitude 15:37:18 35° 171° (S) 2,728 10.6 41.1°
Drops below altitude 10° 15:45:09 10° 109° (ESE) 3,354 10.1 40.0°
Sets 15:47:44 0° 100° (E) 4,013 10.4 39.7°
